TimeEDT,TemperatureF,Dew PointF,Humidity,Sea Level PressureIn,VisibilityMPH,Wind Direction,Wind SpeedMPH,Gust SpeedMPH,PrecipitationIn,Events,Conditions,WindDirDegrees,DateUTC
12:21 AM,57.2,55.4,94,29.90,1.5,Calm,Calm,-,N/A,,Clear,0,2012-10-06 04:21:00
12:26 AM,59.0,57.2,94,29.90,3.0,Calm,Calm,-,N/A,,Clear,0,2012-10-06 04:26:00
12:53 AM,57.9,57.0,97,29.88,5.0,Calm,Calm,-,N/A,,Clear,0,2012-10-06 04:53:00
1:53 AM,57.0,55.0,93,29.87,5.0,Calm,Calm,-,N/A,,Clear,0,2012-10-06 05:53:00
2:39 AM,57.2,55.4,94,29.87,1.5,Calm,Calm,-,N/A,,Clear,0,2012-10-06 06:39:00
2:48 AM,57.2,55.4,94,29.87,0.8,Calm,Calm,-,N/A,,Clear,0,2012-10-06 06:48:00
2:53 AM,57.0,55.0,93,29.86,2.5,Calm,Calm,-,N/A,,Clear,0,2012-10-06 06:53:00
3:00 AM,57.2,55.4,94,29.87,3.0,Calm,Calm,-,N/A,,Clear,0,2012-10-06 07:00:00
3:53 AM,55.9,54.0,93,29.83,3.0,Calm,Calm,-,N/A,,Clear,0,2012-10-06 07:53:00
4:02 AM,55.4,53.6,94,29.84,1.8,Calm,Calm,-,N/A,,Clear,0,2012-10-06 08:02:00
4:53 AM,55.9,53.1,90,29.82,3.0,Calm,Calm,-,N/A,,Clear,0,2012-10-06 08:53:00
5:10 AM,55.4,53.6,94,29.83,1.5,Calm,Calm,-,N/A,,Clear,0,2012-10-06 09:10:00
5:21 AM,55.4,53.6,94,29.83,0.8,Calm,Calm,-,N/A,,Clear,0,2012-10-06 09:21:00
5:29 AM,55.4,53.6,94,29.83,2.0,Calm,Calm,-,N/A,,Clear,0,2012-10-06 09:29:00
5:37 AM,55.4,53.6,94,29.83,3.0,Calm,Calm,-,N/A,,Clear,0,2012-10-06 09:37:00
5:50 AM,53.6,53.6,100,29.82,1.5,Calm,Calm,-,N/A,,Clear,0,2012-10-06 09:50:00
5:51 AM,54.0,53.1,97,29.81,1.0,Calm,Calm,-,N/A,,Clear,0,2012-10-06 09:51:00
6:03 AM,53.6,51.8,94,29.83,3.0,Calm,Calm,-,N/A,,Clear,0,2012-10-06 10:03:00
6:28 AM,53.6,51.8,94,29.82,1.8,Calm,Calm,-,N/A,,Clear,0,2012-10-06 10:28:00
6:37 AM,53.6,51.8,94,29.82,3.0,Calm,Calm,-,N/A,,Clear,0,2012-10-06 10:37:00
6:53 AM,54.0,52.0,93,29.81,8.0,Calm,Calm,-,N/A,,Clear,0,2012-10-06 10:53:00
7:53 AM,57.0,55.0,93,29.80,10.0,SSE,3.5,-,N/A,,Clear,150,2012-10-06 11:53:00
8:53 AM,66.9,57.9,73,29.79,10.0,South,3.5,-,N/A,,Clear,180,2012-10-06 12:53:00
10:53 AM,73.0,57.9,59,29.75,10.0,South,9.2,-,N/A,,Partly Cloudy,190,2012-10-06 14:53:00
11:53 AM,73.9,59.0,59,29.74,10.0,Variable,5.8,-,N/A,,Mostly Cloudy,0,2012-10-06 15:53:00
12:53 PM,73.9,57.9,57,29.73,10.0,SW,12.7,18.4,N/A,,Mostly Cloudy,230,2012-10-06 16:53:00
1:53 PM,71.1,57.0,61,29.73,10.0,SSW,6.9,-,N/A,,Mostly Cloudy,210,2012-10-06 17:53:00
2:53 PM,70.0,57.0,63,29.75,10.0,WSW,12.7,-,N/A,,Overcast,250,2012-10-06 18:53:00
3:53 PM,64.9,53.1,65,29.80,10.0,NW,15.0,20.7,N/A,,Overcast,310,2012-10-06 19:53:00
4:04 PM,64.4,51.8,64,29.81,10.0,WNW,10.4,-,N/A,,Overcast,290,2012-10-06 20:04:00
4:53 PM,63.0,52.0,67,29.83,10.0,NNW,6.9,-,N/A,,Overcast,330,2012-10-06 20:53:00
5:00 PM,62.6,50.0,63,29.85,10.0,Variable,6.9,-,N/A,,Overcast,0,2012-10-06 21:00:00
5:53 PM,59.0,45.0,60,29.86,10.0,WNW,11.5,-,N/A,,Scattered Clouds,300,2012-10-06 21:53:00
6:53 PM,57.0,43.0,59,29.88,10.0,West,6.9,-,N/A,,Clear,270,2012-10-06 22:53:00
7:53 PM,54.0,42.1,64,29.91,10.0,West,4.6,-,N/A,,Clear,260,2012-10-06 23:53:00
8:53 PM,53.1,42.1,66,29.94,10.0,West,4.6,-,N/A,,Clear,270,2012-10-07 00:53:00
9:53 PM,48.0,44.1,86,29.96,10.0,Calm,Calm,-,N/A,,Clear,0,2012-10-07 01:53:00
10:53 PM,46.0,43.0,89,29.98,10.0,Calm,Calm,-,N/A,,Clear,0,2012-10-07 02:53:00